Flag for Germany Weather past 2 weeks in Görlitz, Saxony, Germany

Now
55 °F

Rain. Low clouds.


Feels Like: 55 °F
Forecast: 54 / 58 °F
Wind: 1 mph from Northwest

Location: Goerlitz

Current Time: Sep 1, 2014 at 11:57:49 PM

Latest Report: Sep 1, 2014 at 11:00 PM


Visibility: 2 mi

Pressure: 30.09 "Hg

Humidity: 98%

Dew point: 54 °F

Location of GörlitzLocation

Historic Weather in Görlitz — Graph

°F

Görlitz temperature yesterday

Maximum temperature yesterday: 62 °F (at 9:00 AM)
Minimum temperature yesterday: 56 °F (at 10:00 PM)
Average temperature yesterday: 59 °F

Past Weeks' High & Low Weather Summary

 TemperatureHumidityPressure
High70 °F (Aug 28, 4:00 PM)99% (Aug 27, 5:00 AM)30.11 "Hg (Aug 27, 5:00 AM)
Low46 °F (Aug 25, 6:00 AM)37% (Aug 28, 5:00 PM)29.71 "Hg (Aug 18, 3:00 PM)
Average58 °F76%29.95 "Hg
* Reported Aug 17 10:00 PM — Sep 1 10:00 PM, Görlitz, Weather by CustomWeather, © 2014

Note: Actual official high and low records may vary slightly from our data, if they occured in-between our weather recording intervals... More about our weather records

Advertising

Görlitz weather history for previous 24 hours

 ConditionsComfort  
Time TempWeatherWind HumidityBarometerVisibility
10:00 PM
Sep 1
55 °FLight rain. Low clouds.2 mph98%30.09 "Hg3 mi
9:00 PM56 °FLight rain. Low clouds.2 mph97%30.09 "Hg4 mi
8:00 PM56 °FLight rain. Overcast.2 mph95%30.08 "Hg4 mi
7:00 PM56 °FLight rain. Low clouds.3 mph95%30.06 "Hg5 mi
6:00 PM57 °FLight rain. Low clouds.3 mph95%30.06 "Hg4 mi
5:00 PM57 °FLight rain. Low clouds.3 mph94%30.06 "Hg5 mi
4:00 PM58 °FLight rain. Low clouds.2 mph92%30.05 "Hg5 mi
3:00 PM58 °FLow clouds.2 mph93%30.05 "Hg5 mi
2:00 PM58 °FLight rain. Low clouds.3 mph93%30.04 "Hg6 mi
1:00 PM57 °FLight rain. Low clouds.2 mph94%30.04 "Hg4 mi
12:00 PM57 °FLight rain. Low clouds.2 mph96%30.03 "Hg2 mi
11:00 AM56 °FLight rain. Low clouds.2 mph98%30.03 "Hg1 mi
10:00 AM55 °FLight rain. Low clouds.2 mph98%30.01 "Hg1 mi
9:00 AM55 °FLight rain. Low clouds.2 mph98%30.00 "Hg2 mi
8:00 AM55 °FLow clouds.2 mph98%29.99 "Hg2 mi
7:00 AM55 °FDrizzle. Low clouds.2 mph98%29.97 "Hg2 mi
6:00 AM56 °FFog.2 mph98%29.96 "Hg2 mi
5:00 AM56 °FLow clouds.2 mph98%29.94 "Hg2 mi
4:00 AM56 °FLow clouds.2 mph98%29.93 "Hg2 mi
3:00 AM56 °FLight rain. Low clouds.1 mph97%29.93 "Hg4 mi
2:00 AM56 °FLight rain. Overcast.1 mph96%29.93 "Hg5 mi
1:00 AM56 °FLight rain. Overcast.1 mph97%29.93 "Hg7 mi
12:00 AM56 °FOvercast.1 mph98%29.91 "Hg7 mi
11:00 PM
Aug 31
57 °FLight rain. Overcast.2 mph97%29.90 "Hg8 mi
Weather by CustomWeather, © 2014

See weather overviewHow to use our weather pages